TimeEST,TemperatureF,Dew PointF,Humidity,Sea Level PressureIn,VisibilityMPH,Wind Direction,Wind SpeedMPH,Gust SpeedMPH,PrecipitationIn,Events,Conditions,WindDirDegrees,DateUTC
12:02 AM,8.6,5.0,85,30.20,0.8,Calm,Calm,-,N/A,,Mostly Cloudy,0,2013-01-03 05:02:00
12:22 AM,8.6,5.0,85,30.20,1.5,Calm,Calm,-,N/A,,Mist,0,2013-01-03 05:22:00
12:41 AM,5.0,3.2,92,30.20,1.0,Calm,Calm,-,N/A,,Mist,0,2013-01-03 05:41:00
1:02 AM,3.2,1.4,92,30.20,0.2,Calm,Calm,-,N/A,Fog,Light Freezing Fog,0,2013-01-03 06:02:00
1:21 AM,5.0,1.4,85,30.20,0.2,Calm,Calm,-,N/A,Fog,Light Freezing Fog,0,2013-01-03 06:21:00
1:41 AM,6.8,3.2,85,30.20,1.2,Calm,Calm,-,N/A,,Mist,0,2013-01-03 06:41:00
2:02 AM,5.0,1.4,85,30.19,0.8,South,3.5,-,N/A,,Mist,190,2013-01-03 07:02:00
2:22 AM,1.4,-0.4,92,30.19,1.5,South,3.5,-,N/A,,Mostly Cloudy,190,2013-01-03 07:22:00
3:02 AM,5.0,3.2,92,30.19,2.5,Calm,Calm,-,N/A,,Overcast,0,2013-01-03 08:02:00
3:21 AM,5.0,3.2,92,30.20,1.5,Calm,Calm,-,N/A,,Mostly Cloudy,0,2013-01-03 08:21:00
3:41 AM,5.0,3.2,92,30.18,3.0,SSE,3.5,-,N/A,,Mostly Cloudy,150,2013-01-03 08:41:00
4:02 AM,5.0,3.2,92,30.18,4.0,SSE,3.5,-,N/A,,Mostly Cloudy,160,2013-01-03 09:02:00
4:21 AM,6.8,5.0,92,30.18,4.0,Calm,Calm,-,N/A,,Scattered Clouds,0,2013-01-03 09:21:00
4:41 AM,5.0,3.2,92,30.18,5.0,Calm,Calm,-,N/A,,Mostly Cloudy,0,2013-01-03 09:41:00
5:02 AM,6.8,5.0,92,30.17,3.0,Calm,Calm,-,N/A,,Mist,0,2013-01-03 10:02:00
5:21 AM,5.0,1.4,85,30.18,3.0,Calm,Calm,-,N/A,,Mist,0,2013-01-03 10:21:00
5:42 AM,3.2,1.4,92,30.17,3.0,South,3.5,-,N/A,,Mist,180,2013-01-03 10:42:00
6:02 AM,8.6,5.0,85,30.18,5.0,South,3.5,-,N/A,,Scattered Clouds,170,2013-01-03 11:02:00
6:21 AM,8.6,6.8,92,30.18,7.0,South,4.6,-,N/A,,Mostly Cloudy,170,2013-01-03 11:21:00
6:42 AM,8.6,6.8,92,30.19,7.0,South,3.5,-,N/A,,Scattered Clouds,180,2013-01-03 11:42:00
7:02 AM,8.6,5.0,85,30.20,7.0,Calm,Calm,-,N/A,,Mostly Cloudy,0,2013-01-03 12:02:00
7:21 AM,8.6,5.0,85,30.20,5.0,South,3.5,-,N/A,,Mostly Cloudy,170,2013-01-03 12:21:00
7:42 AM,8.6,6.8,92,30.19,7.0,South,4.6,-,N/A,,Mostly Cloudy,180,2013-01-03 12:42:00
8:02 AM,8.6,5.0,85,30.19,7.0,South,3.5,-,N/A,,Overcast,190,2013-01-03 13:02:00
8:21 AM,8.6,5.0,85,30.19,7.0,South,3.5,-,N/A,,Scattered Clouds,190,2013-01-03 13:21:00
8:42 AM,8.6,5.0,85,30.19,7.0,South,3.5,-,N/A,,Scattered Clouds,190,2013-01-03 13:42:00
9:02 AM,8.6,5.0,85,30.18,10.0,Calm,Calm,-,N/A,,Clear,0,2013-01-03 14:02:00
9:21 AM,10.4,8.6,92,30.18,10.0,Calm,Calm,-,N/A,,Clear,0,2013-01-03 14:21:00
9:42 AM,12.2,10.4,92,30.19,10.0,SSW,5.8,-,N/A,,Clear,200,2013-01-03 14:42:00
10:01 AM,14.0,12.2,93,30.20,10.0,SSW,9.2,-,N/A,,Clear,210,2013-01-03 15:01:00
10:42 AM,17.6,14.0,86,30.20,10.0,SW,9.2,-,N/A,,Clear,230,2013-01-03 15:42:00
11:01 AM,19.4,12.2,74,30.19,10.0,SW,11.5,-,N/A,,Clear,220,2013-01-03 16:01:00
11:21 AM,23.0,10.4,59,30.19,10.0,SW,9.2,-,N/A,,Clear,230,2013-01-03 16:21:00
11:42 AM,24.8,10.4,54,30.18,10.0,SW,11.5,-,N/A,,Clear,230,2013-01-03 16:42:00
12:01 PM,26.6,10.4,51,30.18,10.0,SW,10.4,-,N/A,,Clear,230,2013-01-03 17:01:00
12:21 PM,26.6,10.4,51,30.17,10.0,WSW,9.2,17.3,N/A,,Clear,240,2013-01-03 17:21:00
12:42 PM,28.4,10.4,47,30.17,10.0,WSW,10.4,17.3,N/A,,Clear,240,2013-01-03 17:42:00
1:01 PM,28.4,12.2,51,30.16,10.0,WSW,8.1,-,N/A,,Clear,240,2013-01-03 18:01:00
1:22 PM,28.4,14.0,55,30.16,10.0,WSW,11.5,17.3,N/A,,Mostly Cloudy,240,2013-01-03 18:22:00
1:42 PM,30.2,14.0,51,30.16,10.0,WSW,9.2,-,N/A,,Overcast,250,2013-01-03 18:42:00
2:01 PM,30.2,17.6,60,30.16,10.0,West,12.7,-,N/A,,Overcast,270,2013-01-03 19:01:00
2:22 PM,30.2,21.2,69,30.17,10.0,West,17.3,21.9,N/A,,Overcast,270,2013-01-03 19:22:00
2:42 PM,30.2,21.2,69,30.17,10.0,West,11.5,-,N/A,,Overcast,260,2013-01-03 19:42:00
3:01 PM,30.2,21.2,69,30.17,10.0,WSW,13.8,-,N/A,,Mostly Cloudy,250,2013-01-03 20:01:00
3:22 PM,28.4,19.4,69,30.17,10.0,SW,9.2,-,N/A,,Scattered Clouds,230,2013-01-03 20:22:00
3:42 PM,28.4,19.4,69,30.18,10.0,WSW,11.5,-,N/A,,Scattered Clouds,240,2013-01-03 20:42:00
4:01 PM,28.4,21.2,74,30.19,10.0,WSW,9.2,-,N/A,,Scattered Clouds,250,2013-01-03 21:01:00
4:22 PM,28.4,21.2,74,30.19,10.0,WSW,6.9,16.1,N/A,,Mostly Cloudy,250,2013-01-03 21:22:00
4:42 PM,28.4,21.2,74,30.20,10.0,SW,6.9,-,N/A,,Mostly Cloudy,220,2013-01-03 21:42:00
5:01 PM,26.6,19.4,74,30.21,10.0,SW,9.2,-,N/A,,Mostly Cloudy,230,2013-01-03 22:01:00
5:22 PM,26.6,21.2,80,30.21,10.0,SW,11.5,-,N/A,,Mostly Cloudy,230,2013-01-03 22:22:00
5:41 PM,26.6,21.2,80,30.21,10.0,SW,8.1,-,N/A,,Overcast,230,2013-01-03 22:41:00
6:01 PM,26.6,21.2,80,30.22,10.0,SW,9.2,-,N/A,,Overcast,230,2013-01-03 23:01:00
6:22 PM,26.6,21.2,80,30.23,10.0,WSW,8.1,-,N/A,,Overcast,240,2013-01-03 23:22:00
6:41 PM,28.4,21.2,74,30.23,10.0,WSW,6.9,-,N/A,,Overcast,240,2013-01-03 23:41:00
7:01 PM,26.6,21.2,80,30.23,10.0,WSW,6.9,-,N/A,,Overcast,240,2013-01-04 00:01:00
7:22 PM,28.4,21.2,74,30.23,10.0,WSW,9.2,-,N/A,,Overcast,240,2013-01-04 00:22:00
7:41 PM,28.4,21.2,74,30.24,10.0,WSW,8.1,-,N/A,,Overcast,240,2013-01-04 00:41:00
8:02 PM,28.4,21.2,74,30.24,10.0,WSW,5.8,-,N/A,,Overcast,250,2013-01-04 01:02:00
8:22 PM,28.4,21.2,74,30.24,10.0,WSW,5.8,-,N/A,,Overcast,250,2013-01-04 01:22:00
8:41 PM,28.4,21.2,74,30.24,10.0,WSW,6.9,-,N/A,,Overcast,240,2013-01-04 01:41:00
9:02 PM,28.4,21.2,74,30.25,10.0,WSW,6.9,-,N/A,,Overcast,250,2013-01-04 02:02:00
9:22 PM,28.4,21.2,74,30.25,10.0,WSW,9.2,-,N/A,,Overcast,250,2013-01-04 02:22:00
9:41 PM,28.4,21.2,74,30.25,10.0,West,9.2,-,N/A,,Overcast,260,2013-01-04 02:41:00
10:02 PM,28.4,21.2,74,30.25,10.0,West,5.8,-,N/A,,Overcast,260,2013-01-04 03:02:00
10:22 PM,28.4,21.2,74,30.25,10.0,WSW,8.1,-,N/A,,Overcast,250,2013-01-04 03:22:00
10:41 PM,28.4,21.2,74,30.25,10.0,WSW,8.1,-,N/A,,Overcast,250,2013-01-04 03:41:00
11:02 PM,28.4,21.2,74,30.25,10.0,West,11.5,-,N/A,,Overcast,260,2013-01-04 04:02:00
11:22 PM,28.4,21.2,74,30.25,10.0,West,11.5,-,N/A,,Overcast,280,2013-01-04 04:22:00
11:41 PM,28.4,21.2,74,30.25,10.0,West,8.1,-,N/A,,Overcast,270,2013-01-04 04:41:00